Voltar ao catálogo

STARLINK-36756

AtivoComunicaçõesSSO
NORAD 67817·PAYLOAD·🇺🇸 United States

Lançado Feb 15, 2026 de Vandenberg Space Force Base

Loading…

Próximas Passagens (próximas 24 horas)

TLE

AtualizadoSource: CelesTrak SupGP

Época: Sep 14, 2026, 23:08 UTC

1 67817C 26032W   26257.96437500  .00066585  00000+0  20669-2 0  2579
2 67817  97.2856  84.4834 0001650  99.2719  97.7425 15.33406019    15

Acompanhe STARLINK-36756 em tempo real com AllMySat

Download on the App Store